Regional Weather Roundup
Issued by NWS

Home | Current Version | Previous Version | Graphics & Text | Print | Product List | Glossary On
Versions: 1 2 3 4 5 6 7 8 9 10 11 12 13 14 15 16 17 18 19 20 21 22 23 24 25 26 27 28 29 30 31 32 33 34 35 36 37 38 39 40 41 42 43 44 45 46 47 48 49 50
000
ASUS43 KLSX 221907
RWRMO

WEATHER SUMMARY FOR MISSOURI
NATIONAL WEATHER SERVICE SPRINGFIELD MO
200 PM CDT MON SEP 22 2014

NOTE: "FAIR" INDICATES FEW OR NO CLOUDS BELOW 12,000 FEET WITH NO
       SIGNIFICANT WEATHER AND/OR OBSTRUCTIONS TO VISIBILITY.
       CURRENT SKY AND/OR WEATHER CONDITIONS ARE NOT AVAILABLE FOR
       CHILLICOTHE AND FARMINGTON.

MOZ001>031-035>038-043-044-053-054-222000-
...NORTHERN AND WESTERN MISSOURI...

CITY           SKY/WX    TMP DP  RH WIND       PRES   REMARKS
KANSAS CTY INT MOSUNNY   71  53  52 S3        30.28F
KANSAS C DTWN  SUNNY     73  50  44 CALM      30.27F
LEE`S SUMMIT   SUNNY     70  49  47 VRB3      30.29F
ST JOSEPH      SUNNY     72  50  45 CALM      30.28F
CHILLICOTHE      N/A     72  52  49 VRB6      30.29F
KIRKSVILLE     SUNNY     71  46  40 CALM      30.29F

$$
MOZ066>068-077>081-088>096-101>105-222000-
...SOUTHWEST MISSOURI...

CITY           SKY/WX    TMP DP  RH WIND       PRES   REMARKS
SPRINGFIELD    SUNNY     72  50  45 N3        30.27F
JOPLIN         SUNNY     71  53  52 CALM      30.28F

$$
MOZ032>034-039>042-045>050-055>058-069>072-222000-
...CENTRAL MISSOURI...

CITY           SKY/WX    TMP DP  RH WIND       PRES   REMARKS
COLUMBIA       SUNNY     70  49  47 E7        30.28F
JEFFERSON CITY SUNNY     73  45  36 VRB3      30.27F
ROLLA          SUNNY     70  48  45 MISG      30.27F
SEDALIA        SUNNY     73  50  44 VRB6      30.28F
WHITEMAN AFB   MOSUNNY   72  52  50 NE6       30.27F
OSAGE BEACH    SUNNY     70  48  46 CALM      30.28F

$$
MOZ051-052-059>065-222000-
...EAST CENTRAL MISSOURI...

CITY           SKY/WX    TMP DP  RH WIND       PRES   REMARKS
ST LOUIS INTL  SUNNY     72  47  40 CALM      30.28F
SPIRIT OF STL  SUNNY     70  50  49 VRB5      30.27F
ST CHARLES     SUNNY     71  47  42 CALM      30.27F

$$
MOZ072>076-082>087-097>100-106>115-222000-
...SOUTH CENTRAL AND SOUTHEAST MISSOURI...

CITY           SKY/WX    TMP DP  RH WIND       PRES   REMARKS
CAPE GIRARDEAU SUNNY     72  47  40 VRB7      30.24F
FARMINGTON     SUNNY     70  48  46 N5        30.29F
POPLAR BLUFF   SUNNY     73  48  41 NE9       30.24F
WEST PLAINS    SUNNY     71  50  47 E6        30.27F

$$


USA.gov is the U.S. government's official web portal to all federal, state and local government web resources and services.